Weather in Olenivka

Ukraine / Donetsk Region     48°15′40″N   38°16′18″E
temp.,
°C
wind,
m/s
gust,
m/s
humid.,
%
clouds,
%
prec.,
mm/h
press.,
hPa
HPBL,
m
20 june, sun
sun2000:00+20e717583 0.0 1017474
03:00+18e617550 0.0 1017419
06:00+17e61759100 0.0 1017406
09:00+22e61554100 0.0 1017539
12:00+26e8134975 0.0 1016799
15:00+27e813513 0.0 10151020
18:00+25ene6145713 0.0 1013607
21:00+23ene618581 0.0 1013476
21 june, mon
mon2100:00+22e61658100 0.0 1013401
03:00+21ese5145024 0.1 1014374
06:00+20ese616535 0.0 1014455
09:00+24ese7154922 0.0 1014686
12:00+28ese712400 0.0 1014788
15:00+29ese712440 0.0 10141283
18:00+28e612480 0.0 1013882
21:00+24ene515560 0.0 1014421
22 june, tue
tue2200:00+20e4146742 0.3 1014264
03:00+18e5146624 0.9 1014238
06:00+19e515584 0.1 1014338
09:00+25e6154811 0.1 1015699
12:00+29e713390 0.0 10141211
15:00+31e713424 0.0 10141721
18:00+28ene5115082 0.0 1013688
21:00+26ene61649100 0.0 1013423
23 june, wed
wed2300:00+23e6145891 0.1 1013257
03:00+20ese4136398 1.3 1013235
06:00+20ese41161100 0.3 1014222
09:00+25ese5947100 0.3 1015345
12:00+28ene6942100 0.0 1015514
15:00+31e6104021 0.0 10151718
18:00+30e484998 0.0 10151017
21:00+25ene615570 0.0 1015403
24 june, thu
thu2400:00+24e61553100 0.0 1015408
03:00+22e51453100 0.1 1015285
06:00+21e41154100 0.4 1016217
09:00+25ese51047100 0.4 1017473
12:00+28ese5736100 0.0 1017838
15:00+29ese5736100 0.0 1016981
18:00+28ese255089 0.0 1016585
21:00+24ne235798 0.0 101654